Regional Weather Roundup
Issued by NWS

Home | Current Version | Previous Version | Graphics & Text | Print | Product List | Glossary Off
Versions: 1 2 3 4 5 6 7 8 9 10 11 12 13 14 15 16 17 18 19 20 21 22 23 24 25 26 27 28 29 30 31 32 33 34 35 36 37 38 39 40 41 42 43 44 45 46 47 48 49 50

000
ASUS43 KLSX 210207
RWRMO

WEATHER SUMMARY FOR MISSOURI
NATIONAL WEATHER SERVICE SPRINGFIELD MO
800 PM CST SAT JAN 20 2018

NOTE: "FAIR" INDICATES FEW OR NO CLOUDS BELOW 12,000 FEET WITH NO
       SIGNIFICANT WEATHER AND/OR OBSTRUCTIONS TO VISIBILITY.
       CURRENT SKY AND/OR WEATHER CONDITIONS ARE NOT AVAILABLE FOR
       CHILLICOTHE AND FARMINGTON.

MOZ001>031-035>038-043-044-053-054-210300-
...NORTHERN AND WESTERN MISSOURI...

CITY           SKY/WX    TMP DP  RH WIND       PRES   REMARKS
KANSAS CTY INT CLEAR     45  42  89 E8        29.85F
KANSAS C DTWN  CLEAR     47  42  83 E3        29.85S
LEE`S SUMMIT   CLEAR     44  43  96 E8        29.85F
ST JOSEPH      CLOUDY    44  42  93 CALM      29.87R
CHILLICOTHE      N/A     44  40  85 SE5       29.91S
KIRKSVILLE     CLOUDY    43  42  97 SE5       29.93S

$$
MOZ066>068-077>081-088>096-101>105-210300-
...SOUTHWEST MISSOURI...

CITY           SKY/WX    TMP DP  RH WIND       PRES   REMARKS
SPRINGFIELD    CLEAR     51  45  79 S13       29.89R
JOPLIN         CLEAR     56  48  74 S20G28    29.87R
BRANSON        CLEAR     48  46  93 SE7       29.94S

$$
MOZ032>034-039>042-045>050-055>058-069>072-210300-
...CENTRAL MISSOURI...

CITY           SKY/WX    TMP DP  RH WIND       PRES   REMARKS
COLUMBIA       CLEAR     49  42  77 SE7       29.90F
JEFFERSON CITY CLEAR     47  41  80 SE8       29.91S
ROLLA          CLEAR     49  44  83 S12       29.93S
SEDALIA        CLEAR     45  44  97 E5        29.88S
WHITEMAN AFB   CLEAR     43  40  88 E5        29.83S
WARRENSBURG    CLEAR     45  43  93 NE6       29.87F
OSAGE BEACH    CLEAR     51  44  77 S6        29.91S

$$
MOZ051-052-059>065-210300-
...EAST CENTRAL MISSOURI...

CITY           SKY/WX    TMP DP  RH WIND       PRES   REMARKS
ST LOUIS INTL  PTCLDY    45  39  79 SE10      29.97S
SPIRIT OF STL  CLEAR     38  37  97 E3        29.95S
ST CHARLES     CLEAR     36  34  92 E7        29.97R

$$
MOZ072>076-082>087-097>100-106>115-210300-
...SOUTH CENTRAL AND SOUTHEAST MISSOURI...

CITY           SKY/WX    TMP DP  RH WIND       PRES   REMARKS
CAPE GIRARDEAU CLOUDY    46  41  82 S8        30.07S
FARMINGTON     CLEAR     44  41  89 S12       30.00S
POPLAR BLUFF   MOCLDY    45  40  82 CALM      30.05S
WEST PLAINS    CLOUDY    53  47  79 S14       29.99S

$$



USA.gov is the U.S. government's official web portal to all federal, state and local government web resources and services.